Accueil
METAR-TAF:

METAR-TAF

Aéroports :

Emmen, Suisse

latitude: 47-05-32N, longitude: 8-18-16E, altitude: 426 m

Observation

Le bulletin a été fait il y a 40 minutes, à 16:50 UTC
Vent 2 kt de direction variable
Température 21°C
Humidité 73%
Pression 1016 hPa
Visibilité 10 km ou plus
Nuages épars à une hauteur de 4000 ft
Nuages fragmentés à une hauteur de 6300 ft
Nuages fragmentés à une hauteur de 9400 ft

METAR: LSME 281650Z AUTO VRB02KT 9999NDV SCT040 BKN063 BKN094 21/16 Q1016 RMK

Heure: 19:30 (17:30 UTC)


TAF: absent

Observations et prévisions météorologiques de plus de 4000 aéroports (messages METAR et TAF).

Les stations disponibles sont représentées par des disques jaunes et rouges sur la carte.

Passer la souris dessus pour voir le nom de la station.

Cliquer dessus pour voir les observations et prévisions météorologiques.

Pour changer de carte: cliquez sur les boutons verts avec une croix noire pour zoomer, sur le bouton vert avec un tiret pour effectuer un zoom arrière, ou sur les flèches vertes pour les cartes adjacentes.


METAR-TAF: